Total_Precipitation_Accumulation
1.42 1.38 1.31 1.28 1.23 1.17 1.13 1.09 1.00 0.94 0.89 0.85 0.82 0.80 0.73 0.61 0.51 0.48 0.45 0.49 0.51 0.58 0.76 0.96 1.17 1.44 1.73 1.79 1.81 1.65 1.52 1.47 1.35 1.21 1.17 1.30 1.38 1.34 1.28 1.33 1.25 1.08 1.02
1.55 1.52 1.48 1.34 1.27 1.21 1.14 1.11 1.04 0.97 0.91 0.85 0.78 0.70 0.70 0.68 0.61 0.58 0.53 0.52 0.50 0.49 0.62 0.83 1.06 1.31 1.67 1.89 1.97 2.08 1.88 1.75 1.68 1.47 1.24 1.20 1.29 1.32 1.34 1.35 1.40 1.32 1.17
1.77 1.67 1.65 1.55 1.39 1.33 1.29 1.23 1.20 1.12 1.05 0.94 0.85 0.76 0.68 0.68 0.64 0.64 0.61 0.58 0.56 0.52 0.54 0.69 0.88 1.14 1.43 1.73 1.97 2.21 2.32 2.06 1.96 1.88 1.61 1.33 1.30 1.38 1.43 1.47 1.50 1.55 1.42
1.94 1.93 1.80 1.69 1.50 1.48 1.46 1.40 1.32 1.27 1.15 1.04 0.96 0.85 0.75 0.71 0.67 0.65 0.63 0.61 0.62 0.60 0.57 0.62 0.69 0.89 1.19 1.50 1.77 2.06 2.56 2.49 2.27 2.15 2.07 1.74 1.44 1.39 1.43 1.52 1.60 1.65 1.71
2.06 2.10 2.10 1.95 1.78 1.69 1.59 1.49 1.38 1.31 1.25 1.16 1.09 1.01 0.89 0.80 0.75 0.76 0.69 0.59 0.56 0.60 0.62 0.64 0.67 0.74 0.94 1.22 1.57 1.90 2.48 2.77 2.68 2.57 2.48 2.28 1.86 1.56 1.49 1.54 1.66 1.73 1.84
2.03 2.05 2.11 2.16 2.10 2.00 1.87 1.72 1.58 1.41 1.29 1.23 1.23 1.22 1.07 0.93 0.86 0.83 0.81 0.71 0.59 0.55 0.61 0.66 0.69 0.70 0.80 0.99 1.28 1.62 2.06 2.49 2.72 2.83 2.83 2.84 2.61 2.11 1.80 1.72 1.78 1.92 2.01
1.93 1.96 1.92 2.03 2.08 2.02 1.92 1.85 1.76 1.69 1.55 1.40 1.46 1.52 1.42 1.16 0.97 0.88 0.85 0.82 0.73 0.61 0.58 0.62 0.68 0.71 0.76 0.87 1.05 1.30 1.68 2.14 2.50 2.73 2.82 2.93 3.13 2.91 2.42 2.10 2.02 2.10 2.22
1.82 1.91 1.92 1.87 1.88 1.90 1.89 1.82 1.77 1.74 1.69 1.55 1.53 1.62 1.64 1.56 1.23 0.92 0.83 0.82 0.81 0.78 0.70 0.64 0.66 0.72 0.79 0.83 0.85 1.02 1.31 1.77 2.29 2.71 2.91 2.99 3.19 3.46 3.23 2.69 2.39 2.33 2.43
1.82 1.78 1.86 1.89 1.83 1.80 1.79 1.76 1.69 1.63 1.63 1.52 1.37 1.54 1.63 1.42 1.16 0.97 0.85 0.76 0.73 0.80 0.78 0.73 0.70 0.68 0.75 0.84 0.83 0.85 0.99 1.35 1.88 2.39 2.85 3.12 3.26 3.59 3.79 3.48 2.99 2.71 2.75
1.83 1.76 1.75 1.80 1.84 1.77 1.68 1.65 1.66 1.63 1.66 1.66 1.47 1.29 1.28 1.19 1.19 1.04 0.91 0.86 0.81 0.77 0.80 0.79 0.77 0.71 0.70 0.80 0.87 0.85 0.91 1.08 1.49 2.07 2.56 3.12 3.47 3.72 4.15 4.15 3.82 3.32 3.07
1.79 1.74 1.72 1.71 1.71 1.70 1.61 1.57 1.61 1.64 1.66 1.65 1.55 1.34 1.20 1.05 0.99 1.08 0.94 0.85 0.93 0.90 0.85 0.87 0.87 0.84 0.77 0.76 0.84 0.89 0.98 1.10 1.42 1.84 2.33 2.93 3.70 4.00 4.41 4.64 4.28 3.67 3.23
1.84 1.71 1.63 1.64 1.60 1.54 1.51 1.49 1.50 1.49 1.54 1.57 1.51 1.41 1.33 1.27 1.10 1.07 1.01 0.83 0.83 0.87 0.91 0.93 0.98 0.95 0.89 0.87 0.88 1.09 1.15 1.27 1.42 1.67 1.97 2.41 3.09 3.83 4.31 4.60 4.43 3.91 3.46
1.87 1.76 1.69 1.59 1.55 1.48 1.42 1.42 1.45 1.45 1.40 1.43 1.46 1.39 1.29 1.19 1.10 1.15 1.24 1.13 0.99 0.88 0.95 1.00 0.95 0.97 0.99 1.02 1.06 1.20 1.29 1.29 1.24 1.44 1.65 1.79 2.17 2.83 3.60 4.25 4.57 4.33 3.88
1.74 1.64 1.69 1.62 1.53 1.51 1.50 1.47 1.45 1.44 1.45 1.38 1.32 1.31 1.32 1.20 1.16 1.24 1.36 1.46 1.41 1.09 0.94 0.95 0.92 0.91 1.03 1.05 1.12 1.25 1.14 1.24 1.23 1.30 1.43 1.56 1.71 2.05 2.67 3.44 4.28 4.76 4.52
1.70 1.67 1.68 1.67 1.60 1.61 1.65 1.65 1.60 1.48 1.45 1.44 1.38 1.30 1.31 1.28 1.22 1.20 1.23 1.39 1.67 1.54 1.05 0.80 0.83 0.88 0.97 1.08 1.08 1.01 0.96 1.13 1.23 1.29 1.39 1.48 1.58 1.75 2.08 2.61 3.24 4.18 4.83
1.69 1.70 1.71 1.72 1.66 1.60 1.66 1.73 1.67 1.57 1.55 1.50 1.49 1.47 1.34 1.26 1.28 1.30 1.34 1.32 1.39 1.54 1.29 0.78 0.70 0.78 0.93 1.11 1.21 1.02 0.98 1.14 1.19 1.25 1.26 1.30 1.45 1.61 1.83 2.13 2.53 3.13 4.06
1.69 1.65 1.61 1.65 1.71 1.69 1.64 1.69 1.66 1.60 1.59 1.52 1.48 1.51 1.40 1.30 1.39 1.42 1.47 1.47 1.41 1.44 1.48 0.97 0.76 0.83 1.06 1.19 1.26 1.15 1.11 1.09 1.09 1.19 1.24 1.28 1.34 1.52 1.69 1.88 2.10 2.46 3.13
1.67 1.60 1.56 1.57 1.63 1.66 1.64 1.65 1.63 1.58 1.57 1.53 1.48 1.50 1.49 1.40 1.40 1.43 1.51 1.51 1.43 1.36 1.45 1.27 0.99 1.00 1.12 1.25 1.29 1.26 1.24 1.20 1.07 1.14 1.20 1.32 1.34 1.47 1.66 1.78 1.89 2.10 2.48
1.74 1.62 1.57 1.58 1.61 1.67 1.65 1.59 1.66 1.63 1.52 1.44 1.42 1.47 1.50 1.50 1.42 1.37 1.46 1.50 1.44 1.38 1.42 1.45 1.20 1.07 1.16 1.31 1.45 1.48 1.42 1.40 1.26 1.22 1.21 1.31 1.44 1.47 1.59 1.73 1.84 1.96 2.10
1.74 1.68 1.57 1.54 1.61 1.73 1.73 1.70 1.76 1.72 1.59 1.44 1.33 1.33 1.41 1.55 1.56 1.54 1.55 1.52 1.55 1.63 1.60 1.58 1.43 1.27 1.29 1.40 1.57 1.66 1.68 1.62 1.52 1.36 1.36 1.40 1.50 1.58 1.56 1.59 1.60 1.67 1.80
1.56 1.60 1.62 1.57 1.60 1.83 2.05 2.16 2.03 1.76 1.58 1.48 1.30 1.21 1.28 1.55 1.76 1.92 1.96 1.80 1.82 1.98 1.95 1.90 1.76 1.56 1.43 1.50 1.63 1.62 1.72 1.67 1.67 1.56 1.47 1.45 1.41 1.42 1.45 1.47 1.50 1.52 1.61
1.52 1.54 1.59 1.59 1.56 1.75 2.19 2.40 2.00 1.61 1.46 1.43 1.37 1.22 1.23 1.49 1.68 1.85 1.99 1.94 1.94 2.12 2.25 2.20 2.04 1.76 1.43 1.32 1.40 1.62 1.86 2.06 2.05 1.75 1.58 1.58 1.39 1.41 1.40 1.32 1.46 1.54 1.58
1.52 1.51 1.53 1.55 1.52 1.59 1.99 2.20 1.94 1.57 1.42 1.34 1.29 1.25 1.27 1.36 1.52 1.54 1.70 1.75 1.73 1.88 2.11 2.21 2.20 1.77 1.53 1.42 1.64 1.91 1.95 2.06 1.97 1.88 1.87 1.96 1.63 1.52 1.41 1.42 1.55 1.53 1.60
1.49 1.47 1.49 1.49 1.47 1.54 1.87 2.09 1.91 1.59 1.48 1.40 1.35 1.26 1.20 1.24 1.38 1.56 1.66 1.64 1.53 1.56 1.77 1.95 2.15 1.95 1.74 1.76 2.09 2.39 2.51 2.49 2.21 2.07 2.02 2.28 1.92 1.66 1.53 1.49 1.56 1.48 1.49
1.48 1.43 1.40 1.46 1.43 1.46 1.78 2.11 1.97 1.62 1.54 1.45 1.42 1.33 1.19 1.15 1.38 1.58 1.54 1.51 1.43 1.44 1.56 1.77 1.93 2.01 2.04 2.18 2.49 2.93 3.13 3.13 2.84 2.46 2.19 2.25 2.13 1.96 1.92 1.90 1.81 1.68 1.50
1.40 1.41 1.36 1.37 1.38 1.36 1.60 2.01 2.12 1.66 1.54 1.45 1.43 1.37 1.43 1.38 1.50 1.52 1.40 1.49 1.61 1.47 1.38 1.42 1.49 1.55 1.59 1.74 2.17 2.62 3.00 3.16 2.94 2.84 2.43 2.23 2.21 2.25 2.68 2.48 2.08 1.76 1.58